FW1206 Weather Reports


Display with metric or nautical units.
time (UTC)temp
F
wind
direction
speed
MPH
gust
MPH
rain 1hr
in
rain 24hr
in
rain mn
in
humidity
%
barometer
mb
20260504173012 72 297 0.0 3.0 0.00 0.00 0.00 55 1012.0
20260504171531 70 269 0.0 3.0 0.00 0.00 0.00 56 1012.1
20260504081505 63 263 0.0 0.0 0.00 0.00 0.00 59 1010.3
20260504044544 66 198 0.0 0.0 0.00 0.00 0.00 53 1011.0
20260504043043 66 198 0.0 0.0 0.00 0.00 0.00 54 1011.1
20260504041545 66 198 0.0 0.0 0.00 0.00 0.00 54 1011.0
20260504040041 67 198 0.0 0.0 0.00 0.00 0.00 52 1011.0
20260504034551 66 198 0.0 0.0 0.00 0.00 0.00 53 1011.0
20260504033042 66 198 0.0 0.0 0.00 0.00 0.00 53 1011.0
20260504031541 66 198 0.0 0.0 0.00 0.00 0.00 54 1011.1
20260504030043 68 198 0.0 0.0 0.00 0.00 0.00 53 1011.1
20260504024539 70 198 0.0 1.0 0.00 0.00 0.00 52 1011.1
20260504023038 71 188 0.0 2.0 0.00 0.00 0.00 49 1011.0
20260504021537 73 212 0.0 3.0 0.00 0.00 0.00 49 1011.2
20260504020037 73 165 0.0 3.0 0.00 0.00 0.00 49 1011.3
20260504014541 75 197 0.0 3.0 0.00 0.00 0.00 48 1011.2
20260504013033 78 212 0.0 1.0 0.00 0.00 0.00 45 1011.3
20260504011531 78 336 0.0 4.0 0.00 0.00 0.00 38 1011.5
20260504010028 79 351 1.0 6.0 0.00 0.00 0.00 39 1011.6
20260504004526 78 257 0.0 2.0 0.00 0.00 0.00 40 1011.7
20260504003024 78 7 0.0 5.0 0.00 0.00 0.00 41 1011.8
20260504001524 78 324 0.0 3.0 0.00 0.00 0.00 41 1012.0
20260504000020 78 82 1.0 6.0 0.00 0.00 0.00 39 1012.2
20260503234527 78 13 1.0 5.0 0.00 0.00 0.00 41 1012.4
20260503233016 77 31 2.0 7.0 0.00 0.00 0.00 41 1012.4
20260503231515 77 30 2.0 5.0 0.00 0.00 0.00 42 1012.5
20260503230012 76 39 2.0 6.0 0.00 0.00 0.00 47 1012.8
20260503224513 76 34 0.0 7.0 0.00 0.00 0.00 45 1012.9
20260503223008 76 340 1.0 7.0 0.00 0.00 0.00 46 1013.1
20260503221506 75 18 2.0 6.0 0.00 0.00 0.00 45 1013.3
20260503220019 75 18 0.0 9.0 0.00 0.00 0.00 46 1013.4
20260503214502 75 37 1.0 9.0 0.00 0.00 0.00 48 1013.5
20260503213111 73 358 3.0 10.0 0.00 0.00 0.00 47 1013.6
20260503211558 74 11 2.0 7.0 0.00 0.00 0.00 49 1013.7
20260503204554 72 8 2.0 9.0 0.00 0.00 0.00 49 1014.2
20260503203055 72 20 3.0 9.0 0.00 0.00 0.00 51 1014.5
20260503201548 72 22 3.0 9.0 0.00 0.00 0.00 52 1014.8
20260503200050 73 346 1.0 5.0 0.00 0.00 0.00 54 1015.0
20260503194545 72 38 2.0 6.0 0.00 0.00 0.00 53 1015.0
20260503193049 71 31 2.0 7.0 0.00 0.00 0.00 52 1015.1
20260503191543 72 340 2.0 6.0 0.00 0.00 0.00 54 1015.2
20260503190046 71 30 2.0 8.0 0.00 0.00 0.00 53 1015.3
20260503184542 71 6 1.0 7.0 0.00 0.00 0.00 54 1015.5
20260503183051 70 24 2.0 8.0 0.00 0.00 0.00 53 1015.5
20260503181533 69 48 2.0 7.0 0.00 0.00 0.00 54 1015.7
20260503180031 69 30 1.0 5.0 0.00 0.00 0.00 54 1015.7
20260503174530 68 69 0.0 7.0 0.00 0.00 0.00 57 1015.7